TimeCST,TemperatureF,Dew PointF,Humidity,Sea Level PressureIn,VisibilityMPH,Wind Direction,Wind SpeedMPH,Gust SpeedMPH,PrecipitationIn,Events,Conditions,WindDirDegrees,DateUTC
12:54 AM,30.9,25.0,79,30.17,10.0,Calm,Calm,-,N/A,,Clear,0,2013-01-17 06:54:00
1:54 AM,30.0,25.0,82,30.17,9.0,Calm,Calm,-,N/A,,Clear,0,2013-01-17 07:54:00
2:54 AM,30.9,26.1,82,30.18,8.0,Calm,Calm,-,N/A,,Overcast,0,2013-01-17 08:54:00
3:54 AM,30.9,27.0,85,30.19,8.0,Calm,Calm,-,N/A,,Overcast,0,2013-01-17 09:54:00
4:54 AM,32.0,25.0,75,30.19,10.0,Calm,Calm,-,N/A,,Overcast,0,2013-01-17 10:54:00
5:54 AM,30.9,24.1,76,30.17,10.0,North,5.8,-,N/A,,Clear,360,2013-01-17 11:54:00
6:54 AM,33.1,23.0,66,30.19,10.0,North,4.6,-,N/A,,Clear,360,2013-01-17 12:54:00
7:54 AM,30.9,23.0,72,30.23,10.0,North,3.5,-,N/A,,Clear,10,2013-01-17 13:54:00
8:54 AM,36.0,26.1,67,30.26,10.0,NNE,6.9,-,N/A,,Clear,30,2013-01-17 14:54:00
9:54 AM,39.9,28.0,63,30.26,10.0,NNE,8.1,-,N/A,,Clear,30,2013-01-17 15:54:00
10:54 AM,43.0,30.9,62,30.24,10.0,North,9.2,-,N/A,,Partly Cloudy,10,2013-01-17 16:54:00
11:54 AM,45.0,32.0,60,30.23,10.0,North,11.5,-,N/A,,Partly Cloudy,360,2013-01-17 17:54:00
12:54 PM,45.0,32.0,60,30.21,10.0,North,12.7,23.0,N/A,,Scattered Clouds,350,2013-01-17 18:54:00
1:54 PM,45.0,32.0,60,30.22,10.0,NNW,15.0,25.3,N/A,,Scattered Clouds,340,2013-01-17 19:54:00
2:20 PM,42.8,30.2,61,30.22,10.0,NNW,16.1,24.2,N/A,,Mostly Cloudy,340,2013-01-17 20:20:00
2:54 PM,43.0,30.9,62,30.25,10.0,NNW,12.7,20.7,N/A,,Mostly Cloudy,340,2013-01-17 20:54:00
3:09 PM,42.8,30.2,61,30.25,10.0,NW,20.7,26.5,N/A,,Scattered Clouds,320,2013-01-17 21:09:00
3:54 PM,41.0,28.0,60,30.29,10.0,NNW,15.0,24.2,N/A,,Partly Cloudy,330,2013-01-17 21:54:00
4:54 PM,37.0,27.0,67,30.34,10.0,NNW,10.4,-,N/A,,Clear,330,2013-01-17 22:54:00
5:54 PM,35.1,25.0,67,30.38,10.0,NW,10.4,-,N/A,,Clear,320,2013-01-17 23:54:00
6:54 PM,35.1,25.0,67,30.41,10.0,NNW,5.8,-,N/A,,Clear,330,2013-01-18 00:54:00
7:54 PM,34.0,24.1,67,30.45,10.0,NNW,8.1,-,N/A,,Clear,340,2013-01-18 01:54:00
8:54 PM,32.0,23.0,69,30.48,10.0,NNW,8.1,-,N/A,,Clear,330,2013-01-18 02:54:00
9:54 PM,30.9,21.9,69,30.48,10.0,NNW,4.6,-,N/A,,Clear,330,2013-01-18 03:54:00
10:54 PM,28.9,19.9,69,30.49,10.0,NW,3.5,-,N/A,,Clear,320,2013-01-18 04:54:00
11:54 PM,28.0,19.9,72,30.51,10.0,NW,6.9,-,N/A,,Clear,310,2013-01-18 05:54:00